When you browse on this site, cookies collect data to enhance your experience and personalize the content and advertising you see.
Visit our Privacy Policy to learn more. By continuing to use the site, you agree to this use of cookies and data.
EN

Hourly Weather Cleethorpes

Today, 9 August, Sunday

Time Temperature Precipitation Wind Pressure Humidity
00:00 +16°C° 0 mm 6 mps 766 mmHg 92%
01:00 +16°C° 0.1 mm 6 mps 766 mmHg 92%
02:00 +16°C° 0.1 mm 6 mps 766 mmHg 92%
03:00 +16°C° 0.1 mm 6 mps 766 mmHg 92%
04:00 +16°C° 0 mm 6 mps 766 mmHg 92%
05:00 +16°C° 0 mm 6 mps 765 mmHg 92%
06:00 +16°C° 0 mm 5 mps 765 mmHg 92%
07:00 +17°C° 0 mm 5 mps 765 mmHg 90%
08:00 +17°C° 0 mm 5 mps 765 mmHg 88%
09:00 +17°C° 0 mm 5 mps 765 mmHg 86%
10:00 +19°C° 0 mm 5 mps 765 mmHg 84%
11:00 +20°C° 0 mm 6 mps 765 mmHg 82%
12:00 +20°C° 0 mm 6 mps 764 mmHg 79%
13:00 +20°C° 0 mm 6 mps 764 mmHg 79%
14:00 +21°C° 0 mm 6 mps 764 mmHg 78%
15:00 +21°C° 0 mm 6 mps 764 mmHg 77%
16:00 +20°C° 0 mm 6 mps 763 mmHg 79%
17:00 +20°C° 0 mm 6 mps 763 mmHg 81%
18:00 +19°C° 0 mm 5 mps 763 mmHg 83%
19:00 +17°C° 0 mm 5 mps 763 mmHg 87%
20:00 +17°C° 0 mm 5 mps 763 mmHg 90%
21:00 +16°C° 0 mm 5 mps 763 mmHg 93%
22:00 +16°C° 0 mm 5 mps 763 mmHg 93%
23:00 +16°C° 0 mm 5 mps 763 mmHg 93%

Tomorrow, 10 August, Monday

Time Temperature Precipitation Wind Pressure Humidity
00:00 +17°C° 0 mm 4 mps 763 mmHg 93%
01:00 +17°C° 0 mm 4 mps 762 mmHg 93%
02:00 +17°C° 0 mm 4 mps 762 mmHg 93%
03:00 +17°C° 0 mm 4 mps 762 mmHg 93%
04:00 +16°C° 0 mm 5 mps 762 mmHg 91%
05:00 +17°C° 0 mm 5 mps 761 mmHg 89%
06:00 +17°C° 0 mm 5 mps 761 mmHg 87%
07:00 +19°C° 0.1 mm 5 mps 761 mmHg 83%
08:00 +20°C° 0.1 mm 5 mps 761 mmHg 78%
09:00 +22°C° 0.1 mm 5 mps 761 mmHg 74%
10:00 +22°C° 0 mm 5 mps 761 mmHg 71%
11:00 +23°C° 0 mm 5 mps 761 mmHg 69%
12:00 +24°C° 0 mm 6 mps 761 mmHg 66%
13:00 +24°C° 0 mm 6 mps 760 mmHg 67%
14:00 +25°C° 0 mm 5 mps 760 mmHg 68%
15:00 +25°C° 0 mm 5 mps 760 mmHg 70%
16:00 +23°C° 0.1 mm 5 mps 760 mmHg 73%
17:00 +23°C° 0.1 mm 5 mps 760 mmHg 77%
18:00 +22°C° 0.1 mm 5 mps 760 mmHg 80%
19:00 +21°C° 0 mm 5 mps 760 mmHg 84%
20:00 +20°C° 0 mm 4 mps 760 mmHg 87%
21:00 +20°C° 0 mm 4 mps 761 mmHg 90%
22:00 +20°C° 0.1 mm 4 mps 761 mmHg 91%
23:00 +20°C° 0.1 mm 3 mps 761 mmHg 91%

Day after tomorrow, 11 August, Tuesday

Time Temperature Precipitation Wind Pressure Humidity
00:00 +20°C° 0.1 mm 3 mps 760 mmHg 91%
01:00 +20°C° 0.2 mm 3 mps 760 mmHg 92%
02:00 +20°C° 0.2 mm 2 mps 760 mmHg 93%
03:00 +19°C° 0.2 mm 2 mps 760 mmHg 93%
04:00 +20°C° 0 mm 2 mps 760 mmHg 92%
05:00 +20°C° 0 mm 2 mps 760 mmHg 90%
06:00 +21°C° 0 mm 2 mps 759 mmHg 89%
07:00 +22°C° 0.5 mm 3 mps 760 mmHg 83%
08:00 +25°C° 0.5 mm 3 mps 760 mmHg 78%
09:00 +26°C° 0.5 mm 4 mps 760 mmHg 72%
10:00 +27°C° 0.5 mm 4 mps 760 mmHg 69%
11:00 +28°C° 0.5 mm 4 mps 760 mmHg 67%
12:00 +28°C° 0.5 mm 4 mps 760 mmHg 64%
13:00 +28°C° 0.3 mm 4 mps 760 mmHg 64%
14:00 +28°C° 0.3 mm 4 mps 760 mmHg 64%
15:00 +28°C° 0.3 mm 4 mps 760 mmHg 63%
16:00 +27°C° 0.5 mm 4 mps 760 mmHg 68%
17:00 +26°C° 0.5 mm 4 mps 760 mmHg 72%
18:00 +25°C° 0.5 mm 4 mps 759 mmHg 76%
19:00 +23°C° 0.5 mm 4 mps 760 mmHg 78%
20:00 +22°C° 0.5 mm 4 mps 760 mmHg 80%
21:00 +21°C° 0.5 mm 4 mps 760 mmHg 82%
22:00 +21°C° 0.4 mm 3 mps 760 mmHg 83%
23:00 +21°C° 0.4 mm 3 mps 760 mmHg 84%

12 August, Wednesday

Time Temperature Precipitation Wind Pressure Humidity
00:00 +21°C° 0.4 mm 2 mps 759 mmHg 85%
01:00 +21°C° 0.7 mm 2 mps 759 mmHg 85%
02:00 +22°C° 0.7 mm 1 mps 759 mmHg 86%
03:00 +21°C° 0.7 mm 1 mps 759 mmHg 86%
04:00 +22°C° 0.3 mm 1 mps 759 mmHg 85%
05:00 +21°C° 0.3 mm 2 mps 758 mmHg 84%
06:00 +23°C° 0.3 mm 2 mps 758 mmHg 83%
07:00 +24°C° 0 mm 3 mps 758 mmHg 78%
08:00 +25°C° 0 mm 3 mps 758 mmHg 73%
09:00 +27°C° 0 mm 4 mps 758 mmHg 67%
10:00 +28°C° 0.1 mm 4 mps 758 mmHg 64%
11:00 +29°C° 0.1 mm 4 mps 758 mmHg 61%
12:00 +30°C° 0.1 mm 4 mps 758 mmHg 57%
13:00 +30°C° 0 mm 4 mps 758 mmHg 57%
14:00 +30°C° 0 mm 4 mps 757 mmHg 57%
15:00 +30°C° 0 mm 4 mps 757 mmHg 57%
16:00 +29°C° 0.4 mm 4 mps 757 mmHg 62%
17:00 +28°C° 0.4 mm 4 mps 757 mmHg 67%
18:00 +26°C° 0.4 mm 5 mps 756 mmHg 72%
19:00 +25°C° 0.5 mm 4 mps 756 mmHg 75%
20:00 +23°C° 0.5 mm 4 mps 756 mmHg 78%
21:00 +22°C° 0.5 mm 4 mps 756 mmHg 81%
22:00 +22°C° 1 mm 4 mps 756 mmHg 83%
23:00 +21°C° 1 mm 3 mps 755 mmHg 85%

13 August, Thursday

Time Temperature Precipitation Wind Pressure Humidity
00:00 +21°C° 1 mm 2 mps 755 mmHg 86%
01:00 +21°C° 0.5 mm 2 mps 755 mmHg 87%
02:00 +21°C° 0.5 mm 2 mps 754 mmHg 88%
03:00 +21°C° 0.5 mm 2 mps 754 mmHg 89%
04:00 +21°C° 0 mm 3 mps 754 mmHg 89%
05:00 +21°C° 0 mm 3 mps 754 mmHg 90%
06:00 +21°C° 0 mm 3 mps 754 mmHg 91%
07:00 +22°C° 0 mm 3 mps 754 mmHg 85%
08:00 +25°C° 0 mm 3 mps 754 mmHg 79%
09:00 +26°C° 0 mm 3 mps 754 mmHg 74%
10:00 +27°C° 0 mm 4 mps 754 mmHg 69%
11:00 +28°C° 0 mm 5 mps 754 mmHg 64%
12:00 +29°C° 0 mm 5 mps 754 mmHg 60%
13:00 +28°C° 0.2 mm 6 mps 754 mmHg 60%
14:00 +28°C° 0.2 mm 6 mps 754 mmHg 60%
15:00 +27°C° 0.2 mm 7 mps 754 mmHg 60%
16:00 +26°C° 0.1 mm 7 mps 754 mmHg 62%
17:00 +24°C° 0.1 mm 6 mps 754 mmHg 64%
18:00 +24°C° 0.1 mm 6 mps 754 mmHg 66%
19:00 +22°C° 0 mm 6 mps 755 mmHg 70%
20:00 +21°C° 0 mm 5 mps 755 mmHg 74%
21:00 +20°C° 0 mm 5 mps 755 mmHg 77%
22:00 +20°C° 0 mm 5 mps 756 mmHg 79%
23:00 +20°C° 0 mm 5 mps 756 mmHg 81%

14 August, Friday

Time Temperature Precipitation Wind Pressure Humidity
00:00 +20°C° 0 mm 6 mps 756 mmHg 82%
01:00 +19°C° 0 mm 6 mps 756 mmHg 82%
02:00 +17°C° 0 mm 6 mps 756 mmHg 82%
03:00 +17°C° 0 mm 6 mps 756 mmHg 81%
04:00 +17°C° 0 mm 6 mps 757 mmHg 80%
05:00 +17°C° 0 mm 6 mps 757 mmHg 79%
06:00 +16°C° 0 mm 6 mps 757 mmHg 79%
07:00 +17°C° 0 mm 6 mps 758 mmHg 74%
08:00 +19°C° 0 mm 6 mps 758 mmHg 70%
09:00 +20°C° 0 mm 6 mps 758 mmHg 66%
10:00 +21°C° 0 mm 5 mps 758 mmHg 63%
11:00 +22°C° 0 mm 5 mps 758 mmHg 59%
12:00 +23°C° 0 mm 5 mps 758 mmHg 55%
13:00 +23°C° 0 mm 5 mps 758 mmHg 53%
14:00 +25°C° 0 mm 5 mps 758 mmHg 52%
15:00 +25°C° 0 mm 5 mps 758 mmHg 50%
16:00 +25°C° 0 mm 5 mps 758 mmHg 53%
17:00 +23°C° 0 mm 5 mps 758 mmHg 55%
18:00 +23°C° 0 mm 5 mps 758 mmHg 58%
19:00 +22°C° 0 mm 4 mps 759 mmHg 61%
20:00 +20°C° 0 mm 4 mps 759 mmHg 65%
21:00 +19°C° 0 mm 3 mps 759 mmHg 69%
22:00 +19°C° 0 mm 3 mps 759 mmHg 70%
23:00 +18°C° 0 mm 3 mps 760 mmHg 71%
Show more